Time,B instrument,Bx,By,Bz,sigma B,Ion instrument,Status,Tp_par,Tp_perp,carrot,r_sun,clat,clong,earth_he_angle,n_p,vp_x,vp_y,vp_z,vth_p_par,vth_p_perp
1980-03-31 00:33:22,-1,nan,nan,nan,nan,1,4,nan,nan,1693,0.87852746,-3.388777,114.05057,274.62088,nan,nan,nan,nan,nan,nan
1980-03-31 00:36:04,-1,nan,nan,nan,nan,1,4,nan,nan,1693,0.87851632,-3.3889632,114.02304,274.6207,nan,nan,nan,nan,nan,nan
1980-03-31 00:39:40,-1,nan,nan,nan,nan,1,4,nan,nan,1693,0.87847435,-3.5300541,114.0752,274.7041,nan,nan,nan,nan,nan,nan
1980-03-31 00:39:41,-1,nan,nan,nan,nan,1,4,nan,nan,1693,0.87847853,-3.5299873,114.07544,274.70435,nan,nan,nan,nan,nan,nan
1980-03-31 00:41:28,1,-8.0,2.65,5.825,0.253722,1,1,12665.3,22026.3,1693,0.87846601,-3.5301886,114.05957,274.7041,2.19634,431.407,-25.2583,-28.231,14.4599,19.069
1980-03-31 00:44:12,-1,nan,nan,nan,nan,1,4,nan,nan,1693,0.87845355,-3.5303888,114.03198,274.70386,nan,nan,nan,nan,nan,nan
1980-03-31 00:46:54,-1,nan,nan,nan,nan,1,4,nan,nan,1693,0.87844527,-3.5305223,114.0083,274.70361,nan,nan,nan,nan,nan,nan
1980-03-31 00:49:36,-1,nan,nan,nan,nan,1,4,nan,nan,1693,0.87843281,-3.5307236,113.98462,274.70337,nan,nan,nan,nan,nan,nan
1980-03-31 00:52:18,-1,nan,nan,nan,nan,1,4,nan,nan,1693,0.87842029,-3.5309238,113.95703,274.70313,nan,nan,nan,nan,nan,nan
1980-03-31 00:55:00,-1,nan,nan,nan,nan,1,4,nan,nan,1693,0.87840784,-3.5311251,113.93335,274.70288,nan,nan,nan,nan,nan,nan
1980-03-31 01:00:24,-1,nan,nan,nan,nan,1,4,nan,nan,1693,0.87838709,-3.5314598,113.88232,274.70264,nan,nan,nan,nan,nan,nan
1980-03-31 01:05:48,-1,nan,nan,nan,nan,1,4,nan,nan,1693,0.87836623,-3.5317936,113.83496,274.70215,nan,nan,nan,nan,nan,nan
1980-03-31 01:08:30,-1,nan,nan,nan,nan,1,4,nan,nan,1693,0.87835377,-3.5319948,113.80737,274.7019,nan,nan,nan,nan,nan,nan
1980-03-31 01:11:12,1,-4.1,5.25,8.025,0.233184,1,1,25397.0,8414.34,1693,0.87834132,-3.5321951,113.78369,274.70166,7.84558,414.709,-21.8709,-38.4613,20.4762,11.786
1980-03-31 01:13:54,-1,nan,nan,nan,nan,1,4,nan,nan,1693,0.87833297,-3.5323296,113.76025,274.70166,nan,nan,nan,nan,nan,nan
1980-03-31 01:16:36,-1,nan,nan,nan,nan,1,4,nan,nan,1693,0.87832046,-3.5325298,113.73267,274.70142,nan,nan,nan,nan,nan,nan
1980-03-31 01:19:18,-1,nan,nan,nan,nan,1,4,nan,nan,1693,0.878308,-3.5327301,113.70898,274.70117,nan,nan,nan,nan,nan,nan
1980-03-31 01:22:00,-1,nan,nan,nan,nan,1,4,nan,nan,1693,0.87829554,-3.5329313,113.6853,274.70093,nan,nan,nan,nan,nan,nan
1980-03-31 01:24:42,-1,nan,nan,nan,nan,1,4,nan,nan,1693,0.8782872,-3.5330648,113.65771,274.70068,nan,nan,nan,nan,nan,nan
1980-03-31 01:27:24,1,-2.475,6.25,8.5,0.315238,1,1,23540.1,15019.0,1693,0.87827468,-3.5332661,113.63403,274.70044,2.73484,414.083,-20.78,-19.7095,19.7134,15.7463
1980-03-31 01:30:06,-1,nan,nan,nan,nan,1,4,nan,nan,1693,0.87826222,-3.5334663,113.6106,274.70044,nan,nan,nan,nan,nan,nan
1980-03-31 01:32:48,1,-4.95,4.9,8.2,0.180278,1,1,6963.97,12413.3,1693,0.87825388,-3.5335999,113.58301,274.7002,5.05887,407.953,-16.7069,-37.7878,10.7223,14.3153
1980-03-31 01:35:30,-1,nan,nan,nan,nan,1,4,nan,nan,1693,0.87824142,-3.5338011,113.55933,274.69995,nan,nan,nan,nan,nan,nan
1980-03-31 01:38:12,-1,nan,nan,nan,nan,1,4,nan,nan,1693,0.87822896,-3.5340014,113.53564,274.69971,nan,nan,nan,nan,nan,nan
1980-03-31 01:40:54,1,-6.15,3.375,8.05,1.61768,1,1,8342.3,14629.3,1693,0.87822062,-3.5341358,113.5083,274.69971,5.74076,427.137,2.15235,-27.1816,11.7355,15.5407
1980-03-31 01:43:36,1,-6.425,2.9,8.3,0.178536,1,1,51802.1,11829.8,1693,0.8782081,-3.5343361,113.48462,274.69946,4.82979,419.744,2.25728,-36.3475,29.2437,13.9748
1980-03-31 01:46:18,1,-5.175,0.525,9.425,0.735272,1,1,32949.5,31292.3,1693,0.87819564,-3.5345364,113.46094,274.69922,1.46639,415.679,14.2425,-39.909,23.3229,22.7288
1980-03-31 01:49:00,-1,nan,nan,nan,nan,1,4,nan,nan,1693,0.87818319,-3.5347376,113.43335,274.69897,nan,nan,nan,nan,nan,nan
1980-03-31 01:51:42,1,-6.4,0.275,9.2,0.383243,1,1,26664.5,8097.78,1693,0.87817484,-3.5348711,113.40967,274.69873,2.68562,427.607,14.4782,-33.9088,20.9809,11.5622
1980-03-31 01:54:24,-1,nan,nan,nan,nan,1,4,nan,nan,1693,0.87816232,-3.5350723,113.38599,274.69849,nan,nan,nan,nan,nan,nan
1980-03-31 01:57:06,1,-5.425,1.5,9.2,0.216506,1,1,5691.66,25182.9,1693,0.87814987,-3.5352726,113.3584,274.69824,2.94088,427.725,8.45728,-35.6978,9.69343,20.3897
1980-03-31 01:59:48,-1,nan,nan,nan,nan,1,4,nan,nan,1693,0.87814152,-3.5354061,113.33496,274.69824,nan,nan,nan,nan,nan,nan
1980-03-31 02:02:30,1,-6.15,-0.4,9.6,0.259808,1,1,25296.7,9795.53,1693,0.87812907,-3.5356073,113.31128,274.698,3.85501,427.504,4.56765,-33.0837,20.4357,12.7166
1980-03-31 02:05:12,-1,nan,nan,nan,nan,1,4,nan,nan,1693,0.87811655,-3.5358076,113.28369,274.69775,nan,nan,nan,nan,nan,nan
1980-03-31 02:07:54,1,-5.7,-1.625,9.725,0.918559,1,1,30488.4,11038.3,1693,0.8781082,-3.5359421,113.26001,274.69751,3.34098,424.788,26.3034,-35.2505,22.435,13.4992
1980-03-31 02:10:36,1,-5.7,2.1,9.1,0.595819,1,1,39128.1,16816.9,1693,0.87809569,-3.5361423,113.23633,274.69727,2.28086,426.797,-14.6644,-31.072,25.4157,16.6622
1980-03-31 02:13:18,1,-5.65,4.475,8.3,0.639824,1,1,31485.5,12109.9,1693,0.87808323,-3.5363436,113.20874,274.69702,6.36418,426.63,-6.35701,-28.5995,22.7989,14.1393
1980-03-31 02:16:00,1,-6.55,4.175,7.575,0.425735,1,1,89978.6,20687.2,1693,0.87807071,-3.5365438,113.18506,274.69678,2.03703,422.238,-2.85748,-30.9198,38.5414,18.4803
1980-03-31 02:18:42,-1,nan,nan,nan,nan,1,4,nan,nan,1693,0.87806237,-3.5366783,113.16162,274.69678,nan,nan,nan,nan,nan,nan
1980-03-31 02:21:24,1,-5.675,6.775,6.825,0.837033,1,1,33258.7,20931.7,1693,0.87804985,-3.5368786,113.13403,274.69653,2.82537,416.558,-27.2882,-19.1673,23.4321,18.5892
1980-03-31 02:24:06,1,-4.85,7.25,6.4,0.316228,1,1,30487.8,19288.4,1693,0.87803739,-3.5370798,113.11035,274.69629,4.27002,427.255,-10.5912,-19.3137,22.4348,17.8445
1980-03-31 02:26:48,1,-3.5,7.3,7.3,0.282843,1,1,64772.7,24265.4,1693,0.87802905,-3.5372133,113.08667,274.69604,2.19807,435.745,-14.7199,-6.63737,32.7005,20.0148
1980-03-31 02:29:30,1,-5.65,6.0,7.6,0.320156,1,1,41327.0,13695.3,1693,0.87801653,-3.5374146,113.05908,274.6958,4.10089,426.404,-15.9213,-1.39243,26.1201,15.0364
1980-03-31 02:32:12,1,-5.75,4.0,8.2,0.304138,1,1,42555.3,18398.2,1693,0.87800401,-3.5376148,113.0354,274.69556,3.04707,429.438,5.39261,-23.3157,26.5054,17.4279
1980-03-31 02:34:54,1,-6.46,4.12,6.82,1.88191,1,1,25531.9,24432.4,1693,0.87799567,-3.5377493,113.01196,274.69556,4.14414,436.683,-9.34976,-0.190722,20.5305,20.0836
1980-03-31 02:37:36,1,-6.6,3.375,7.8,0.420565,1,1,41675.8,32630.3,1693,0.87798321,-3.5379496,112.98438,274.69531,3.35337,426.155,14.6931,-25.6924,26.2301,23.2096
1980-03-31 02:40:18,1,-5.8,3.625,7.9,0.438035,1,1,34741.6,13284.4,1693,0.8779707,-3.5381508,112.96069,274.69507,6.64445,427.44,30.4534,-29.2341,23.9487,14.8091
1980-03-31 02:43:00,1,-4.95,4.9,8.0,0.269258,1,1,42525.7,12061.6,1693,0.87795818,-3.5383511,112.93701,274.69482,4.45888,441.833,19.766,-46.8867,26.4962,14.1111
1980-03-31 02:45:42,1,-5.55,4.75,7.35,1.34257,1,1,31878.8,9805.03,1693,0.87794983,-3.5384855,112.90942,274.69458,7.28762,428.626,30.0731,-36.866,22.9408,12.7228
1980-03-31 02:48:24,1,-5.3,6.25,6.8,0.33541,1,1,16392.8,26734.1,1693,0.87793738,-3.5386858,112.88574,274.69434,2.13089,424.518,19.7333,-30.1155,16.4507,21.0083
1980-03-31 02:51:06,1,-6.125,5.1,7.4,0.686932,1,1,52132.0,10782.4,1693,0.87792486,-3.538887,112.86206,274.69409,6.8731,424.682,29.4552,-30.2958,29.3366,13.3419
1980-03-31 02:53:48,1,-5.3,0.1,9.45,0.35,1,1,39369.7,10593.9,1693,0.87791651,-3.5390205,112.83472,274.69409,7.50908,419.511,10.8078,-36.8697,25.4941,13.2247
1980-03-31 02:56:30,1,-5.875,0.75,9.2,0.24367,1,1,39000.9,25851.1,1693,0.877904,-3.5392218,112.81104,274.69385,2.36462,412.667,28.7042,-37.6009,25.3744,20.6584
1980-03-31 02:59:12,1,-5.64,0.98,8.82,0.331059,1,1,38011.1,13831.7,1693,0.87789148,-3.539422,112.78735,274.6936,7.04647,418.538,16.7766,-39.4381,25.0503,15.1111
1980-03-31 03:01:54,1,-5.85,1.2,8.65,0.880341,1,1,41927.0,11217.4,1693,0.8778832,-3.5395565,112.75977,274.69336,6.4914,432.997,1.49548,-40.0893,26.309,13.6083
1980-03-31 03:04:36,1,-6.7,2.75,7.45,0.406202,1,1,43811.1,17711.2,1693,0.87787068,-3.5397568,112.73608,274.69312,3.82592,420.033,18.9382,-45.977,26.8937,17.0994
1980-03-31 03:07:18,1,-7.55,3.7,5.7,0.403113,1,1,49659.0,20471.9,1693,0.87785816,-3.539958,112.7124,274.69287,2.95573,424.069,24.351,-49.2698,28.6323,18.3839
1980-03-31 03:10:00,1,-6.725,4.225,6.075,0.30104,1,1,49076.2,25802.6,1693,0.87784564,-3.5401583,112.68506,274.69287,2.70394,417.087,19.6912,-38.8392,28.4638,20.6391
1980-03-31 03:12:42,1,-6.525,4.075,6.275,0.525,1,1,20766.5,17598.5,1693,0.8778373,-3.5402927,112.66138,274.69263,3.49358,425.193,25.8387,-34.5584,18.5157,17.045
1980-03-31 03:15:24,1,-7.0,3.6,6.1,0.3937,1,1,28406.1,10219.8,1693,0.87782478,-3.540493,112.6377,274.69238,5.53027,416.482,11.6869,-40.4251,21.6553,12.9891
1980-03-31 03:18:06,1,-7.25,3.5,6.175,0.423527,1,1,34328.0,10421.6,1693,0.87781227,-3.5406942,112.61011,274.69214,7.87819,434.348,-1.21106,-38.689,23.8058,13.1167
1980-03-31 03:20:48,1,-6.65,2.875,7.225,0.257391,1,1,7776.9,25631.8,1693,0.87780392,-3.5408278,112.58667,274.69214,9.14602,437.262,5.71282,-17.0917,11.3308,20.5706
1980-03-31 03:23:30,1,-6.9,2.675,7.3,0.402337,1,1,34103.7,20913.0,1693,0.8777914,-3.541029,112.56299,274.69189,2.74895,430.707,2.88055,-28.4097,23.7279,18.5809
1980-03-31 03:26:10,1,-6.825,2.6,7.875,0.422788,1,1,12245.0,36707.2,1693,0.87777889,-3.5412292,112.5354,274.69165,1.64022,444.559,15.5582,-29.7489,14.218,24.6169
1980-03-31 04:05:13,-1,nan,nan,nan,nan,1,3,nan,nan,1693,0.87761617,-3.5438404,112.177,274.68872,nan,461.458,26.8566,-29.6528,nan,nan
1980-03-31 04:16:01,-1,nan,nan,nan,nan,1,3,nan,nan,1693,0.87757021,-3.5445766,112.07446,274.68774,nan,430.584,15.5164,-21.5963,nan,nan
1980-03-31 04:26:49,-1,nan,nan,nan,nan,1,3,nan,nan,1693,0.87752843,-3.5452461,111.97607,274.68701,nan,414.586,14.1342,-32.1669,nan,nan
1980-03-31 04:37:37,-1,nan,nan,nan,nan,1,3,nan,nan,1693,0.87748247,-3.5459824,111.87769,274.68628,nan,382.803,37.0455,-40.2815,nan,nan
1980-03-31 04:59:13,-1,nan,nan,nan,nan,1,3,nan,nan,1693,0.87739062,-3.5474548,111.67676,274.68457,nan,415.178,18.6559,-25.4671,nan,nan
1980-03-31 05:20:49,-1,nan,nan,nan,nan,1,3,nan,nan,1693,0.87730277,-3.5488615,111.47607,274.68311,nan,422.995,22.3216,-30.945,nan,nan
1980-03-31 05:31:37,-1,nan,nan,nan,nan,1,4,nan,nan,1693,0.87725675,-3.5495987,111.37744,274.68213,nan,nan,nan,nan,nan,nan
1980-03-31 05:42:25,-1,nan,nan,nan,nan,1,3,nan,nan,1693,0.8772108,-3.5503349,111.27905,274.6814,nan,412.606,-4.08707,-13.1551,nan,nan
1980-03-31 05:53:13,-1,nan,nan,nan,nan,1,3,nan,nan,1693,0.87716478,-3.5510721,111.17676,274.68066,nan,397.214,-20.9205,-38.2345,nan,nan
1980-03-31 06:04:01,-1,nan,nan,nan,nan,1,3,nan,nan,1693,0.87711877,-3.5518084,111.07813,274.67969,nan,409.156,-14.7716,-35.2688,nan,nan
1980-03-31 06:14:49,-1,nan,nan,nan,nan,1,4,nan,nan,1693,0.87707686,-3.5524788,110.97974,274.67896,nan,nan,nan,nan,nan,nan
1980-03-31 06:25:37,-1,nan,nan,nan,nan,1,3,nan,nan,1693,0.87703079,-3.553215,110.87744,274.67822,nan,410.854,-13.8481,-32.0262,nan,nan
1980-03-31 06:36:25,-1,nan,nan,nan,nan,1,3,nan,nan,1693,0.87698478,-3.5539522,110.77881,274.67725,nan,399.927,-8.82367,-26.7102,nan,nan
1980-03-31 06:47:13,-1,nan,nan,nan,nan,1,3,nan,nan,1693,0.8769387,-3.5546885,110.68042,274.67651,nan,407.385,4.55628,-30.7504,nan,nan
1980-03-31 06:54:25,-1,nan,nan,nan,nan,1,3,nan,nan,1693,0.87690938,-3.5551577,110.61328,274.67578,nan,407.383,4.55707,-30.7504,nan,nan
1980-03-31 06:58:01,-1,nan,nan,nan,nan,1,4,nan,nan,1693,0.87689263,-3.5554256,110.57788,274.67554,nan,nan,nan,nan,nan,nan
1980-03-31 06:58:37,-1,nan,nan,nan,nan,1,3,nan,nan,1693,0.87689263,-3.5554256,110.57397,274.67554,nan,406.367,-68.9609,-32.6776,nan,nan
1980-03-31 07:08:49,-1,nan,nan,nan,nan,1,3,nan,nan,1693,0.87685072,-3.5560961,110.47949,274.6748,nan,411.183,22.8119,-28.77,nan,nan
1980-03-31 07:09:25,-1,nan,nan,nan,nan,1,3,nan,nan,1693,0.87684649,-3.5561628,110.47168,274.6748,nan,409.105,-18.5124,-28.7707,nan,nan
1980-03-31 07:19:37,-1,nan,nan,nan,nan,1,3,nan,nan,1693,0.87680459,-3.5568323,110.3811,274.67407,nan,397.457,1.314,-34.3374,nan,nan
1980-03-31 07:20:13,-1,nan,nan,nan,nan,1,4,nan,nan,1693,0.87680042,-3.5569,110.37329,274.67407,nan,nan,nan,nan,nan,nan
1980-03-31 07:30:25,-1,nan,nan,nan,nan,1,3,nan,nan,1693,0.87675846,-3.5575695,110.27881,274.67334,nan,405.523,19.8948,-32.2802,nan,nan
1980-03-31 07:31:01,-1,nan,nan,nan,nan,1,3,nan,nan,1693,0.87675428,-3.5576363,110.27466,274.6731,nan,405.523,19.8949,-32.2802,nan,nan
1980-03-31 07:41:13,-1,nan,nan,nan,nan,1,3,nan,nan,1693,0.87671232,-3.5583067,110.18018,274.67236,nan,411.971,17.165,-19.5299,nan,nan
1980-03-31 07:52:01,-1,nan,nan,nan,nan,1,3,nan,nan,1693,0.87669599,-3.4186151,109.99786,274.58771,nan,409.694,-11.4541,-5.79908,nan,nan
1980-03-31 08:21:39,-1,nan,nan,nan,nan,1,3,nan,nan,1693,0.8765716,-3.4206328,109.72223,274.58551,nan,404.153,22.5964,-30.442,nan,nan
1980-03-31 08:24:21,1,-9.86667,2.33333,6.56667,0.282843,1,1,18541.0,20559.4,1693,0.87656027,-3.4208152,109.69858,274.5853,3.97859,412.298,23.5572,-32.86,17.4954,18.4231
1980-03-31 08:28:34,1,-9.475,3.925,6.0,0.314245,1,1,15730.0,16587.2,1693,0.87651932,-3.561389,109.74316,274.66895,3.15561,399.375,8.83513,-33.7559,16.1147,16.548
1980-03-31 08:29:45,1,-9.725,3.575,6.15,0.454148,1,1,16480.8,19309.4,1693,0.87651092,-3.5615225,109.73145,274.66895,4.02393,412.068,23.6266,-32.8516,16.4948,17.8543
1980-03-31 08:32:29,-1,nan,nan,nan,nan,1,4,nan,nan,1693,0.87649834,-3.5617237,109.70776,274.6687,nan,nan,nan,nan,nan,nan
1980-03-31 08:35:11,1,-8.8,0.725,8.4,0.34187,1,1,31540.7,15643.0,1693,0.87648576,-3.5619249,109.68018,274.66846,4.21506,418.062,8.06785,-10.1984,22.8189,16.0701
1980-03-31 08:37:53,1,-8.775,4.1,7.0,0.62998,1,1,31888.8,24123.0,1693,0.87647736,-3.5620584,109.65649,274.66821,3.37561,428.168,37.687,-27.6826,22.9444,19.956
1980-03-31 08:40:35,1,-7.475,3.15,9.1,0.323071,1,1,8467.72,28328.9,1693,0.87646478,-3.5622597,109.63306,274.66821,3.72089,408.866,32.4227,-7.31574,11.8234,21.6258
1980-03-31 08:43:17,1,-6.825,3.6,9.7,0.389711,1,1,33055.7,34236.9,1693,0.87645221,-3.5624609,109.60547,274.66797,2.01848,421.274,34.7026,-3.3025,23.3604,23.7741
1980-03-31 08:45:59,1,-8.4,2.65,8.15,0.273861,1,1,27973.6,16851.5,1693,0.8764438,-3.5625954,109.58179,274.66772,2.71516,414.97,24.932,-19.1259,21.4898,16.6793
1980-03-31 08:48:41,1,-8.35,2.375,7.9,0.298957,1,1,25865.7,13733.1,1693,0.87643123,-3.5627956,109.55811,274.66748,2.39252,408.673,27.5611,-12.4869,20.6642,15.0571
1980-03-31 08:51:23,1,-8.975,2.175,7.525,0.2136,1,1,40658.1,27051.0,1693,0.87641859,-3.5629969,109.53052,274.66724,2.08395,410.713,30.199,-24.9016,25.9079,21.1324
1980-03-31 08:54:05,1,-9.23333,2.2,6.66667,0.301846,1,1,22241.5,10510.6,1693,0.87640601,-3.5631981,109.50684,274.66699,8.45002,399.596,34.2427,-26.9598,19.162,13.1726
1980-03-31 08:56:47,1,-9.0,0.533333,7.76667,0.278887,1,1,36260.0,26734.6,1693,0.87639761,-3.5633316,109.4834,274.66699,1.92961,396.368,11.6298,-25.1426,24.4665,21.0085
1980-03-31 08:59:29,1,-9.3,0.7,7.4,0.282843,1,1,14374.2,19740.4,1693,0.87638503,-3.5635328,109.45581,274.66675,3.23709,400.406,18.5378,-30.6437,15.4046,18.0524
1980-03-31 09:02:11,-1,nan,nan,nan,nan,1,4,nan,nan,1693,0.87637246,-3.5637341,109.43213,274.6665,nan,nan,nan,nan,nan,nan
1980-03-31 09:04:53,1,-8.43333,2.3,8.2,0.169967,1,1,22615.8,22805.5,1693,0.87636399,-3.5638685,109.40845,274.66626,2.49113,407.108,31.4178,-22.3196,19.3225,19.4034
1980-03-31 09:07:35,1,-8.05,2.05,8.475,0.57173,1,1,31770.8,15246.4,1693,0.87635142,-3.5640688,109.38086,274.66602,2.77817,411.167,27.5255,-31.9573,22.9019,15.8651
1980-03-31 09:12:59,1,-9.1,0.8,7.9,0.710634,1,1,2648.94,52723.8,1693,0.87633038,-3.5644045,109.33374,274.66577,21.7764,389.773,22.5122,-45.0458,6.61293,29.5027
1980-03-31 09:15:41,1,-7.85,5.025,7.5,0.290474,1,1,20518.5,27867.0,1693,0.8763178,-3.5646057,109.30615,274.66553,3.57642,421.403,51.0559,-25.6836,18.4048,21.4488
1980-03-31 09:18:23,1,-7.4,5.225,7.075,0.811634,1,1,18384.4,28954.6,1693,0.87630516,-3.564806,109.28247,274.66528,2.6935,427.875,53.4532,-34.0444,17.4214,21.8634
1980-03-31 09:21:05,1,-9.05,0.825,6.9,0.253722,1,1,14568.8,19709.1,1693,0.87629259,-3.5650072,109.25879,274.66504,3.28857,401.013,25.1736,-31.8782,15.5085,18.0381
1980-03-31 09:23:47,1,-8.6,1.15,7.75,0.3,1,1,15794.7,23054.0,1693,0.87628418,-3.5651417,109.23145,274.66504,3.39742,414.419,25.107,-32.3074,16.1478,19.5088
1980-03-31 09:26:29,1,-8.9,3.125,7.1,0.334477,1,1,14065.7,23501.9,1693,0.87627155,-3.5653419,109.20776,274.66479,2.87559,410.817,39.629,-31.8536,15.2384,19.6974
1980-03-31 09:29:11,1,-8.55,3.175,7.475,0.266927,1,1,26463.0,12084.5,1693,0.87625897,-3.5655432,109.18408,274.66455,5.30697,409.234,48.9521,-27.8873,20.9015,14.1245
1980-03-31 09:31:53,1,-8.55,2.25,7.8,0.273861,1,1,13152.9,26053.4,1693,0.87625051,-3.5656776,109.15649,274.66431,2.88624,408.026,36.0464,-30.919,14.7356,20.7391
1980-03-31 09:34:35,1,-7.45,5.95,5.55,0.466369,1,1,75315.9,33997.7,1693,0.87623793,-3.5658789,109.13281,274.66406,2.03946,433.386,61.798,-50.2609,35.2615,23.691
1980-03-31 09:37:17,1,-7.075,0.975,8.65,0.697316,1,1,58000.5,30121.9,1693,0.87622529,-3.5660791,109.10913,274.66382,2.96983,417.723,21.4687,-27.0493,30.9438,22.2997
1980-03-31 09:39:59,1,-8.375,3.775,6.425,0.30104,1,1,28516.2,20580.5,1693,0.87621689,-3.5662136,109.08179,274.66382,3.03788,412.093,47.0689,-34.6707,21.6972,18.4326
1980-03-31 09:42:41,1,-8.725,1.975,7.0,0.467707,1,1,28728.0,16662.0,1693,0.87620431,-3.5664148,109.05811,274.66357,4.24063,402.49,38.6487,-45.3931,21.7776,16.5852
1980-03-31 09:45:23,1,-8.525,1.625,7.3,0.643234,1,1,22405.0,26455.5,1693,0.87619168,-3.5666161,109.03052,274.66333,2.55365,410.987,34.2319,-32.9597,19.2322,20.8986
1980-03-31 09:48:05,1,-8.45,0.475,7.475,1.71792,1,1,60756.9,12306.5,1693,0.8761791,-3.5668163,109.00684,274.66309,3.82007,412.491,25.899,-35.6049,31.6706,14.2536
1980-03-31 09:50:47,1,-7.425,-0.75,8.725,0.668019,1,1,28409.2,16748.8,1693,0.87617069,-3.5669508,108.9834,274.66309,2.96926,415.771,18.1453,-22.3105,21.6565,16.6284
1980-03-31 09:53:29,1,-7.63333,0.0333333,8.33333,0.316228,1,1,36928.7,23647.7,1693,0.87615806,-3.567152,108.95581,274.66284,1.89313,406.846,24.3438,-23.5917,24.6911,19.7584
1980-03-31 09:56:11,-1,nan,nan,nan,nan,1,4,nan,nan,1693,0.87614548,-3.5673523,108.93213,274.6626,nan,nan,nan,nan,nan,nan
1980-03-31 09:58:53,1,-8.15,0.25,8.35,0.33541,1,1,70082.4,35508.5,1693,0.87613708,-3.5674868,108.90845,274.66235,1.79655,412.376,30.1433,-26.7696,34.0144,24.2116
1980-03-31 10:01:35,1,-8.775,-1.25,7.325,0.237171,1,1,49290.7,12966.1,1693,0.87612444,-3.567688,108.88086,274.66211,4.92538,415.013,17.6651,-36.4218,28.526,14.6306
1980-03-31 10:04:17,1,-8.2,-2.425,7.725,0.306186,1,1,44136.9,25520.8,1693,0.87611181,-3.5678892,108.85718,274.66187,1.57878,407.246,4.0166,-33.057,26.9935,20.526
1980-03-31 10:06:59,-1,nan,nan,nan,nan,1,4,nan,nan,1693,0.87612909,-3.4278061,108.7496,274.57773,nan,nan,nan,nan,nan,nan
1980-03-31 10:09:41,1,-8.075,-4.125,6.5,0.416833,1,1,78333.8,17543.2,1693,0.87609076,-3.568224,108.80615,274.66162,1.89907,418.027,-9.10869,-43.8605,35.9611,17.0182
1980-03-31 10:12:23,1,-8.45,-1.4,7.925,0.484123,1,1,27872.4,16434.2,1693,0.87607813,-3.5684252,108.78247,274.66138,2.40206,413.187,21.8864,-23.0625,21.4509,16.4715
1980-03-31 10:15:05,1,-8.1,-0.95,8.6,0.259808,1,1,73143.9,34770.6,1693,0.87606555,-3.5686264,108.75879,274.66113,1.60606,419.676,29.7416,-10.5806,34.7494,23.9588
1980-03-31 10:17:47,1,-8.125,-0.2,8.6,0.383243,1,1,25928.6,14139.5,1693,0.87605709,-3.5687609,108.7312,274.66089,2.36032,416.246,23.5702,-19.5869,20.6894,15.2783
1980-03-31 10:20:29,1,-8.775,-0.9,7.4,0.248747,1,1,44727.4,28790.9,1693,0.87604451,-3.5689621,108.70776,274.66089,1.6521,407.616,25.0256,-25.2841,27.1734,21.8015
1980-03-31 10:23:11,1,-8.3,-0.575,8.3,0.178536,1,1,36086.0,13454.3,1693,0.87603188,-3.5691624,108.68408,274.66064,2.8217,412.752,21.0311,-24.4785,24.4077,14.9035
1980-03-31 10:25:53,1,-7.45,-0.75,9.125,0.319179,1,1,36480.7,21255.5,1693,0.87602347,-3.5692968,108.65649,274.6604,1.7,409.253,25.8063,-8.82584,24.5409,18.7324
1980-03-31 10:28:35,1,-7.75,0.425,8.7,0.435172,1,1,35854.0,23344.2,1693,0.87601084,-3.5694981,108.63281,274.66016,1.58744,414.638,42.6416,-18.394,24.3291,19.6312
1980-03-31 10:31:17,1,-7.725,0.65,8.8,0.307205,1,1,287922.0,35178.2,1693,0.8759982,-3.5696993,108.60913,274.65991,1.94786,430.325,40.2314,-33.0695,68.9438,24.0988
1980-03-31 10:33:59,1,-6.95,1.25,9.325,0.449305,1,1,40514.2,16243.5,1693,0.87598979,-3.5698328,108.58179,274.65991,3.04622,423.779,22.8197,-14.4304,25.862,16.3756
1980-03-31 10:36:41,1,-7.3,1.85,9.325,0.298957,1,1,124161.0,34840.7,1693,0.87597716,-3.570034,108.55811,274.65967,1.64222,427.875,32.1371,-37.59,45.2742,23.9829
1980-03-31 10:39:23,1,-6.425,1.95,10.025,0.247487,1,1,61337.9,11237.7,1693,0.87596452,-3.5702353,108.53442,274.65942,4.07092,425.008,20.0758,-38.4461,31.8216,13.6206
1980-03-31 10:42:05,1,-6.225,2.475,10.0,0.372492,1,1,115151.0,39755.6,1693,0.87595189,-3.5704365,108.50684,274.65918,1.74532,423.227,23.9195,-35.5773,43.6005,25.6187
1980-03-31 10:44:47,1,-7.725,1.225,8.9,0.322102,1,1,41112.5,17417.2,1693,0.87594348,-3.5705709,108.48315,274.65894,1.78759,419.477,21.4146,-26.3196,26.0522,16.9569
1980-03-31 10:47:29,1,-7.8,0.5,8.8,0.3,1,1,159168.0,49682.8,1693,0.87593085,-3.5707722,108.45947,274.65869,1.75056,436.459,35.5613,-25.5239,51.2609,28.6392
1980-03-31 10:50:11,1,-6.6,2.275,9.45,1.09058,1,1,68237.7,32069.0,1693,0.87591827,-3.5709734,108.43213,274.65869,2.37992,410.571,16.3651,-34.5368,33.5637,23.0092
1980-03-31 10:58:17,1,-9.5,-2.35,5.75,0.561249,1,1,128110.0,26957.3,1693,0.87588459,-3.5715094,108.35718,274.65796,1.87284,416.161,-6.83565,-52.9081,45.9885,21.0958
1980-03-31 11:07:15,-1,nan,nan,nan,nan,1,4,nan,nan,1693,0.87584668,-3.572113,108.27441,274.65723,nan,nan,nan,nan,nan,nan
1980-03-31 11:09:57,1,-9.2,-1.0,6.8,0.0,1,1,50539.6,31726.5,1693,0.87583822,-3.5722466,108.25098,274.65723,1.3591,411.017,10.3596,-34.1815,28.8851,22.8859
1980-03-31 11:12:39,1,-9.575,-1.05,6.4,0.24367,1,1,21389.7,26955.4,1693,0.87582558,-3.5724478,108.22729,274.65698,2.17147,420.183,18.1488,-31.1068,18.7915,21.0951
1980-03-31 11:14:29,1,-9.7,-0.775,6.4,0.178536,1,1,20986.1,27822.8,1693,0.87581718,-3.5725822,108.20752,274.65674,1.31406,408.812,18.7421,-29.8015,18.6133,21.4318
1980-03-31 11:17:11,1,-9.4,-0.7,6.4,0.0,1,1,18817.6,26596.2,1693,0.87580454,-3.5727835,108.18384,274.65649,1.89384,422.173,24.336,-26.0916,17.6255,20.954
1980-03-31 11:19:53,1,-9.25,0.175,6.5,0.315238,1,1,28496.9,34378.7,1693,0.87579614,-3.5729179,108.1604,274.65649,1.21862,407.894,22.3292,-26.6665,21.6898,23.8233
1980-03-31 11:22:35,1,-9.25,0.575,6.2,0.290474,1,1,27351.4,11353.6,1693,0.87578344,-3.5731192,108.13281,274.65625,3.78223,415.283,21.9214,-27.135,21.2495,13.6907
1980-03-31 11:30:00,1,-8.08125,0.60625,7.88125,0.640221,1,1,41389.4,43806.4,1693,0.87577969,-3.43346,107.98178,274.57162,1.54249,412.387,25.2176,-27.6859,26.1398,26.8922
1980-03-31 11:30:39,-1,nan,nan,nan,nan,1,4,nan,nan,1693,0.87574977,-3.5736551,108.05811,274.65576,nan,nan,nan,nan,nan,nan
1980-03-31 11:30:40,1,-8.06875,0.25625,8.1625,0.64475,1,1,21787.2,33012.6,1693,0.87574977,-3.5736551,108.05811,274.65576,1.31956,411.416,21.3405,-26.4736,18.9652,23.3452
1980-03-31 11:30:43,1,-7.94375,0.25625,8.275,0.588895,1,1,30200.7,24457.2,1693,0.87574977,-3.5736551,108.05811,274.65576,1.75743,419.921,23.6441,-22.6708,22.3289,20.0938
1980-03-31 11:31:20,1,-8.375,0.20625,7.55,0.743277,1,1,95630.2,45659.5,1693,0.87574553,-3.5737219,108.05396,274.65552,1.68201,416.247,20.2865,-15.2135,39.7334,27.4551
1980-03-31 11:32:01,1,-9.11875,1.0625,6.425,0.517921,1,1,33482.6,13976.9,1693,0.87574136,-3.5737896,108.04614,274.65552,3.21479,418.447,24.2495,-45.3777,23.5108,15.1902
1980-03-31 11:32:41,1,-9.125,1.3125,6.3,0.603505,1,1,9582.0,21634.7,1693,0.87574136,-3.5737896,108.04224,274.65552,2.62987,410.329,29.4385,-33.7359,12.5773,18.8987